[[{"header":{"parameterUnit":"m.s-1","parameterCategory":1,"la1":30.2991,"la2":30.254,"lo1":-89.0895,"lo2":-89.0444,"dy":0.0017,"dx":0.0017,"nx":28,"ny":28,"refTime":"2024-05-13T21:00:00:Z","depth":0,"parameterNumber":2,"parameterNumberName":"U-component_of_WINDS"},"data":[0,0,0,0,0,0,0,0,0,0,0,0,0,0,0,0,0,0,0,0,0,0,0,0,0,0,0,0,0,0,0,0,0,0,0,0,0,0,0,0,0,0,0,0,0,0,0,0,0,0,0,0,0,0,0,0,0,0,-0.5029,-0.5029,0,-0.5048,-0.5048,-0.5048,-0.5126,-0.5128,-0.513,-0.5132,-0.5149,-0.5148,-0.5147,0,0,0,0,0,0,0,0,0,0,0,0,0,-0.5058,-0.5057,-0.5029,-0.5029,-0.5029,-0.5048,-0.5048,-0.5048,-0.5126,-0.5128,-0.513,-0.5132,-0.5149,-0.5148,-0.5147,0,0,0,0,0,0,0,0,0,0,0,0,0,-0.5058,-0.5057,-0.5029,-0.507,-0.5074,-0.5048,-0.5048,-0.5048,-0.5125,-0.5128,-0.5131,-0.5133,-0.515,-0.5148,-0.5146,-0.5081,0,0,-0.5141,-0.514,0,0,0,0,0,0,0,0,-0.5058,-0.5057,-0.5064,-0.5068,-0.5072,-0.5087,-0.5065,-0.5059,-0.5125,-0.5106,-0.5132,-0.5135,-0.5126,-0.5127,-0.5124,-0.5081,-0.5082,-0.5141,-0.514,-0.5139,-0.5138,0,0,0,0,0,0,0,-0.5058,-0.5056,-0.5036,-0.5064,-0.5069,-0.5087,-0.509,-0.5064,-0.5101,-0.5108,-0.5114,-0.5115,-0.5129,-0.5126,-0.5125,-0.5082,-0.5141,-0.5139,-0.5138,-0.5137,-0.4984,-0.4981,0,0,0,0,0,0,-0.5052,-0.5056,-0.5036,-0.5037,-0.5072,-0.5085,-0.5088,-0.508,-0.5101,-0.5107,-0.5112,-0.5118,-0.5127,-0.5127,-0.5126,-0.5048,-0.5139,-0.5137,-0.5136,-0.4987,-0.4983,-0.498,0,0,0,0,0,0,-0.5053,-0.505,-0.5035,-0.5048,-0.5048,-0.5081,-0.5071,-0.5079,-0.5075,-0.5105,-0.5111,-0.5102,-0.513,-0.5129,-0.5091,-0.505,-0.5136,-0.5135,-0.4991,-0.4986,-0.4982,-0.4892,0,0,0,0,0,0,-0.5053,-0.5049,-0.5025,-0.5047,-0.5047,-0.5,-0.5069,-0.5077,-0.5072,-0.508,-0.5097,-0.5102,-0.5132,-0.5093,-0.5089,-0.5049,-0.5133,-0.4994,-0.4989,-0.4983,-0.4899,-0.4885,-0.4874,0,0,0,0,0,-0.5054,-0.5,-0.5024,-0.5021,-0.5017,-0.4997,-0.4997,-0.5032,-0.5069,-0.5044,-0.5063,-0.5102,-0.5056,-0.5089,-0.5085,-0.5043,-0.4997,-0.499,-0.4984,-0.4905,-0.4888,-0.4874,0,0,0,0,0,0,-0.4972,-0.5003,-0.503,-0.4982,-0.4986,-0.5011,-0.4981,-0.5014,-0.5008,-0.5016,-0.5059,-0.5062,-0.5017,-0.5027,-0.5064,-0.4979,-0.5033,-0.5025,-0.4974,-0.4959,-0.4946,-0.4943,-0.5132,0,0,0,0,0,-0.4949,-0.493,-0.4959,-0.4913,-0.4914,-0.4947,-0.4939,-0.4966,-0.4972,-0.4975,-0.4991,-0.4995,-0.4981,-0.4971,-0.496,-0.4902,-0.4905,-0.4871,-0.4859,-0.4848,-0.484,-0.4807,-0.4791,-0.4958,-0.4958,-0.4959,0,0,-0.4899,-0.4914,-0.49,-0.4897,-0.4903,-0.4882,-0.4948,-0.4923,-0.4908,-0.4971,-0.4935,-0.4947,-0.4955,-0.4905,-0.4885,-0.4912,-0.4795,-0.484,-0.4831,-0.4828,-0.4798,-0.4782,-0.4768,-0.4954,-0.4955,-0.4955,0,0,-0.4798,-0.4809,-0.477,-0.4776,-0.4785,-0.4807,-0.4798,-0.4817,-0.4827,-0.4792,-0.4839,-0.4821,-0.4797,-0.4799,-0.4797,-0.4696,-0.4731,-0.4692,-0.4624,-0.4591,-0.4578,-0.4567,-0.4527,-0.4513,-0.4684,-0.4684,-0.4684,0,-0.4735,-0.4706,-0.4746,-0.4718,-0.4714,-0.4771,-0.4731,-0.4735,-0.474,-0.4735,-0.4766,-0.4736,-0.4745,-0.4696,-0.4671,-0.4669,-0.4658,-0.4688,-0.4577,-0.4566,-0.4556,-0.4519,-0.4504,-0.4679,-0.4679,-0.468,-0.468,0,-0.4627,-0.4606,-0.4574,-0.4577,-0.457,-0.4536,-0.457,-0.4558,-0.4585,-0.4603,-0.4566,-0.4579,-0.4571,-0.4562,-0.4589,-0.4516,-0.4532,-0.457,-0.4623,-0.4534,-0.45,-0.4486,-0.4671,-0.4673,-0.4675,-0.4676,0,0,-0.4474,-0.4499,-0.4486,-0.4487,-0.4501,-0.4485,-0.4453,-0.4445,-0.4432,-0.4435,-0.4407,-0.4385,-0.4419,-0.4417,-0.4445,-0.4417,-0.4331,-0.4457,-0.4458,-0.4431,-0.4248,-0.4217,-0.4201,-0.4356,-0.4354,-0.4352,-0.4247,0,-0.4375,-0.4322,-0.4356,-0.4297,-0.4277,-0.433,-0.4302,-0.4307,-0.4323,-0.4308,-0.4326,-0.4308,-0.4357,-0.4355,-0.433,-0.4347,-0.4295,-0.4356,-0.4329,-0.4327,-0.4322,-0.4183,-0.4151,-0.4052,-0.4234,-0.4232,-0.423,0,-0.4252,-0.4247,-0.4186,-0.4202,-0.4195,-0.4169,-0.4163,-0.4148,-0.4154,-0.4168,-0.4165,-0.4199,-0.4168,-0.4223,-0.4179,-0.4219,-0.4211,-0.4217,-0.4214,-0.4211,-0.4271,-0.4173,-0.4021,-0.4004,-0.421,-0.4212,-0.4213,0,-0.4142,-0.4121,-0.4081,-0.408,-0.4099,-0.4079,-0.4086,-0.4095,-0.4087,-0.4082,-0.4077,-0.4069,-0.4063,-0.4055,-0.4085,-0.4124,-0.4036,-0.4095,-0.4045,-0.4043,-0.4021,-0.4022,-0.3862,-0.4021,-0.4021,-0.4022,-0.4022,0,-0.4026,-0.3985,-0.4031,-0.4006,-0.3962,-0.4002,-0.3957,-0.3969,-0.3976,-0.3954,-0.4001,-0.3978,-0.4021,-0.4003,-0.4027,-0.3984,-0.3983,-0.3991,-0.3997,-0.3985,-0.3983,-0.3978,-0.3984,-0.4018,-0.4018,-0.4019,-0.402,0,-0.3895,-0.3924,-0.3883,-0.3904,-0.3908,-0.3874,-0.3892,-0.3869,-0.3888,-0.3859,-0.3854,-0.3884,-0.3865,-0.3895,-0.3879,-0.3895,-0.3836,-0.3855,-0.3833,-0.3838,-0.3784,-0.3787,-0.3613,-0.3591,-0.3766,-0.3765,-0.3763,0,-0.3817,-0.3787,-0.3804,-0.3792,-0.3796,-0.3777,-0.3769,-0.3807,-0.3797,-0.38,-0.3776,-0.3761,-0.375,-0.3716,-0.3736,-0.3723,-0.374,-0.368,-0.3738,-0.3726,-0.3735,-0.3735,-0.3731,-0.3667,-0.3665,-0.3663,-0.3662,0,-0.3676,-0.3691,-0.3678,-0.3669,-0.3658,-0.3653,-0.3651,-0.3638,-0.3679,-0.3664,-0.3645,-0.3636,-0.3619,-0.3602,-0.3595,-0.3601,-0.3636,-0.3643,-0.363,-0.3616,-0.3603,-0.3606,-0.3797,-0.3646,-0.3648,-0.3649,-0.365,-0.365,-0.3567,-0.3542,-0.3549,-0.3532,-0.3535,-0.3531,-0.351,-0.3526,-0.3511,-0.3499,-0.3524,-0.3497,-0.3503,-0.3496,-0.3498,-0.3477,-0.3503,-0.3486,-0.348,-0.3475,-0.3464,-0.3609,-0.3477,-0.3477,-0.3477,-0.3478,-0.3478,0,-0.3425,-0.3432,-0.3416,-0.3411,-0.3397,-0.3434,-0.3433,-0.3418,-0.3395,-0.3397,-0.3385,-0.3361,-0.3344,-0.3363,-0.3349,-0.3329,-0.3344,-0.3323,-0.3324,-0.3324,-0.3444,-0.3454,-0.3311,-0.3311,-0.3311,-0.3311,-0.3311,-0.3311,-0.3349,-0.3307,-0.3323,-0.3282,-0.329,-0.3264,-0.326,-0.3257,-0.3258,-0.3229,-0.3215,-0.3228,-0.3236,-0.3223,-0.3208,-0.3214,-0.3205,-0.3178,-0.3189,-0.33,-0.3316,-0.3331,-0.3342,-0.3176,-0.3176,-0.307,-0.3069,-0.3069]},{"header":{"parameterUnit":"m.s-1","parameterCategory":1,"la1":30.2991,"la2":30.254,"lo1":-89.0895,"lo2":-89.0444,"dy":0.0017,"dx":0.0017,"nx":28,"ny":28,"refTime":"2024-05-13T21:00:00:Z","depth":0,"parameterNumber":3,"parameterNumberName":"V-component_of_WINDS"},"data":[0,0,0,0,0,0,0,0,0,0,0,0,0,0,0,0,0,0,0,0,0,0,0,0,0,0,0,0,0,0,0,0,0,0,0,0,0,0,0,0,0,0,0,0,0,0,0,0,0,0,0,0,0,0,0,0,0,0,2.951,2.9512,0,2.9668,2.967,2.9672,2.9713,2.9712,2.9711,2.971,2.9869,2.9874,2.9879,0,0,0,0,0,0,0,0,0,0,0,0,0,2.9241,2.9245,2.951,2.9512,2.9514,2.9668,2.967,2.9672,2.9713,2.9712,2.9711,2.971,2.9867,2.9873,2.9879,0,0,0,0,0,0,0,0,0,0,0,0,0,2.9374,2.9247,2.951,2.9553,2.9559,2.9667,2.967,2.9673,2.9714,2.9712,2.9711,2.9709,2.9865,2.9873,2.988,2.9956,0,0,2.9903,2.9907,0,0,0,0,0,0,0,0,2.9366,2.9384,2.9545,2.955,2.9557,2.967,2.9633,2.9767,2.9714,2.9655,2.971,2.9709,2.9803,2.9816,2.9849,2.9963,2.997,2.9904,2.9909,2.9912,2.9914,0,0,0,0,0,0,0,2.9357,2.9377,2.9572,2.9547,2.9554,2.9564,2.9581,2.9659,2.9735,2.966,2.9663,2.9681,2.9806,2.9841,2.9853,2.9972,2.9904,2.9911,2.9915,2.9918,3.0156,3.0157,0,0,0,0,0,0,2.9341,2.9369,2.9567,2.9577,2.9456,2.957,2.9589,2.9635,2.9734,2.9748,2.9682,2.9683,2.9829,2.9844,2.9858,2.9953,2.9912,2.9919,2.9924,3.0154,3.0156,3.0158,0,0,0,0,0,0,2.9335,2.9358,2.9561,2.9474,2.9501,2.9576,2.9627,2.9638,2.9673,2.9752,2.9765,2.9704,2.9828,2.9848,2.9931,2.9959,2.9923,2.993,3.0152,3.0155,3.0157,3.0143,0,0,0,0,0,0,2.9327,2.9356,2.9386,2.9475,2.9505,2.9632,2.9628,2.9643,2.9687,2.9689,2.9776,2.9788,2.9829,2.992,2.9939,2.9969,2.9936,3.015,3.0153,3.0156,3.0141,3.0144,3.0147,0,0,0,0,0,2.9317,2.9375,2.9387,2.9411,2.9545,2.9634,2.9651,2.9697,2.9689,2.972,2.977,2.9786,2.9953,2.9928,2.995,2.9983,3.0148,3.0152,3.0156,3.014,3.0144,3.0147,0,0,0,0,0,0,2.9287,2.9388,2.9402,2.9491,2.9554,2.9641,2.9681,2.97,2.9766,2.9765,2.9818,2.9837,2.9917,2.9958,2.9928,3.0061,3.0051,3.0059,3.0031,3.0035,3.0038,3.0026,2.9942,0,0,0,0,0,2.9291,2.9356,2.944,2.951,2.9541,2.9605,2.9645,2.9675,2.9742,2.9768,2.9825,2.9888,2.9954,2.9997,3.0063,3.0147,3.0166,3.0181,3.0184,3.0186,3.0192,3.0239,3.0246,3.0171,3.0171,3.0171,0,0,2.9299,2.9362,2.94,2.9505,2.9557,2.9622,2.9627,2.9695,2.9744,2.9779,2.9861,2.9904,2.9978,3.0062,3.0102,3.0099,3.0218,3.0191,3.0192,3.0198,3.0244,3.0251,3.0257,3.0173,3.0173,3.0172,0,0,2.9347,2.9402,2.9466,2.9518,2.9597,2.964,2.9655,2.9739,2.9769,2.9853,2.9881,2.9938,3.0052,3.0104,3.0145,3.0211,3.0228,3.0231,3.0248,3.0293,3.0299,3.0304,3.0327,3.0335,3.0238,3.0238,3.0238,0,2.9347,2.9447,2.9496,2.9563,2.9608,2.9644,2.9708,2.9756,2.9852,2.9882,2.9878,3.0021,3.0074,3.017,3.0186,3.0218,3.0236,3.0221,3.0294,3.03,3.0306,3.0328,3.0337,3.0237,3.0237,3.0237,3.0237,0,2.9442,2.9511,2.9553,2.9646,2.9696,2.9761,2.9819,2.9863,2.9889,2.9931,3.0015,3.0079,3.0158,3.0184,3.0209,3.0283,3.0279,3.0284,3.0275,3.0312,3.0334,3.0343,3.0237,3.0237,3.0237,3.0237,0,0,2.9476,2.9595,2.9609,2.9652,2.9741,2.9795,2.9861,2.9939,2.9976,3.0041,3.0097,3.0192,3.0197,3.0244,3.0275,3.0315,3.0362,3.0315,3.0317,3.0321,3.0447,3.0442,3.0452,3.0374,3.0376,3.0378,3.0441,0,2.9535,2.9656,2.9702,2.98,2.9863,2.9898,2.9956,3.0016,3.0057,3.0116,3.0161,3.0228,3.023,3.0258,3.0299,3.0348,3.0388,3.0344,3.0426,3.0429,3.0406,3.0463,3.0459,3.0515,3.045,3.0451,3.0452,0,2.962,2.9686,2.9791,2.9872,2.99,2.9951,3.0026,3.0083,3.0151,3.0179,3.023,3.0259,3.0329,3.0316,3.0412,3.0381,3.0417,3.0446,3.0449,3.0458,3.0442,3.0473,3.0534,3.0542,3.0466,3.0465,3.0464,0,2.9632,2.9748,2.9826,2.9861,2.9957,2.9992,3.0034,3.0102,3.0146,3.0211,3.0239,3.0311,3.0351,3.0405,3.0452,3.0439,3.0544,3.0535,3.0567,3.0566,3.0587,3.0585,3.0655,3.0612,3.0612,3.0611,3.0611,0,2.9693,2.9755,2.9833,2.988,2.9951,3.0002,3.0071,3.0115,3.0174,3.023,3.0264,3.0315,3.0375,3.0434,3.0471,3.0544,3.0562,3.0585,3.0594,3.0582,3.0579,3.0606,3.0603,3.0614,3.0613,3.0613,3.0612,0,2.9719,2.9773,2.986,2.9945,2.9967,3.0016,3.0087,3.0134,3.0177,3.0247,3.0267,3.0334,3.0405,3.0457,3.0549,3.0574,3.0652,3.0661,3.0629,3.0633,3.0662,3.0659,3.0751,3.0765,3.0713,3.0714,3.0714,0,2.9754,2.9803,2.9893,2.9933,2.9975,3.0039,3.0084,3.0136,3.0181,3.0263,3.03,3.0373,3.0435,3.0547,3.0603,3.0673,3.0684,3.0711,3.0694,3.068,3.0683,3.068,3.0684,3.0713,3.0714,3.0714,3.0714,0,2.9809,2.9834,2.9898,2.9971,3.0024,3.0084,3.0144,3.0175,3.0238,3.0287,3.036,3.0408,3.0502,3.0574,3.0649,3.0691,3.0713,3.0719,3.073,3.0718,3.0697,3.0708,3.0634,3.0717,3.0716,3.0716,3.0716,3.0716,2.9841,2.9885,2.9955,3.0025,3.0076,3.0132,3.018,3.0229,3.0291,3.0372,3.0399,3.0474,3.0541,3.0645,3.0688,3.0747,3.0747,3.0763,3.0767,3.077,3.0769,3.0688,3.0761,3.0761,3.0761,3.0761,3.0761,0,2.9897,2.9944,3.0008,3.0091,3.0146,3.0162,3.023,3.0274,3.0341,3.0401,3.0461,3.0545,3.0615,3.0677,3.0749,3.0785,3.0796,3.0802,3.08,3.0809,3.0765,3.0748,3.0791,3.0791,3.0791,3.0791,3.0791,3.0791,2.9933,3.001,3.0042,3.0144,3.019,3.0265,3.0302,3.0353,3.0402,3.0494,3.0552,3.0592,3.0653,3.073,3.0795,3.0811,3.0836,3.0839,3.0857,3.0816,3.0812,3.0808,3.0792,3.0844,3.0844,3.0896,3.0897,3.0897]}]]